Location: Poughquag
(41.6090°N, 73.6820°W)
Time: 08:34:41
(UTC-05:00)

Vanguard 1 - Pass Details

Date: 07 December 2023
Orbit: 653 x 3826 km, 34.3° (Epoch: 25 February)

Event Time Altitude Azimuth Distance (km) Brightness Sun altitude
Rises 19:11:17 0° 260° (W) 5,883 15.2 -30.4°
Reaches altitude 10° 19:14:32 10° 258° (WSW) 5,213 14.6 -31.0°
Maximum altitude 19:31:33 70° 179° (S) 3,647 12.7 -34.2°
Enters shadow 19:40:20 47° 116° (ESE) 4,482 12.8 -35.8°
Drops below altitude 10° 19:55:00 10° 102° (ESE) 6,843 - -38.6°
Sets 20:00:03 0° 101° (E) 7,714 - -39.5°
